Location: Newark
(41.0400°S, 62.7845°W)
Time: 06:59:00
(UTC+00:00)

Envisat - Pass Details

Date: 27 October 2021
Orbit: 764 x 766 km, 98.2° (Epoch: 30 November)

Event Time Altitude Azimuth Distance (km) Brightness Sun altitude
Rises 07:50:52 0° 32° (NNE) 3,225 6.3 -13.4°
Reaches altitude 10° 07:53:14 10° 38° (NE) 2,307 5.6 -13.1°
Maximum altitude 07:58:05 46° 109° (ESE) 1,041 4.3 -12.3°
Drops below altitude 10° 08:02:58 10° 181° (S) 2,336 5.9 -11.5°
Sets 08:05:22 0° 186° (S) 3,270 6.6 -11.1°
